sat.trackr.live / text

‹ back to catalog

STARLINK-37179

NORAD 68618 · 2026-073S

PAYLOAD ACTIVE UNKNOWN

§ Identity

Operator
Country
US
Launch date
2026-04-07
Launch site
AFWTR
Launch vehicle
Mass (kg)
RCS (m²)

Purposes: comms

External: N2YO · Heavens-Above · Gunter

§ Orbital elements

Epoch: 2026-09-19T18:58:31.880064Z

Period
93.91 min
Inclination
97.2851°
Eccentricity
0.0001573
Mean motion
15.33460893 rev/d
Perigee alt
464.4 km
Apogee alt
466.6 km
Semi-major
6,843.6 km
B*
4.3715e-4
RAAN
100.8429°
Arg perigee
87.3853°
Mean anomaly
272.7570°
Rev number
2,563

§ Raw data

STARLINK-371791 68618U 26073S   26262.79064676  .00014071  00000+0  43715-3 0  99952 68618  97.2851 100.8429 0001573  87.3853 272.7570 15.33460893 25635

JSON: /api/v1/satellites/68618 · /tle

For live sub-satellite position, see the globe view (requires WebGL).

§ Visibility from observer

Set your observer location to see the next 7 days of passes ≥ 10°. The values pass through the URL so the page stays shareable.

No JS? Fill the form by hand. The geolocation button needs JavaScript.